This is the latest recevied weather packets stored in our database for station/object 9W3FAB-1. If no packets are shown the sender has not sent any weather packets the latest 10 day(s).
| Time | Temp. | Humidity | Pressure | Rain* | Wind** | Luminosity | Snow |
|---|---|---|---|---|---|---|---|
| 1778095057 | 26.67° C | 100% | 1007 hPa | - | - | - | - |
| 1778094156 | 27.22° C | 100% | 1007.2 hPa | - | - | - | - |
| 1778093256 | 27.22° C | 100% | 1007.2 hPa | - | - | - | - |
| 1778092355 | 26.67° C | 100% | 1007.5 hPa | - | - | - | - |
| 1778091454 | 27.22° C | 100% | 1007.5 hPa | - | - | - | - |
| 1778090553 | 27.22° C | 100% | 1007.5 hPa | - | - | - | - |
| 1778089652 | 27.22° C | 100% | 1007.5 hPa | - | - | - | - |
| 1778088751 | 27.78° C | 100% | 1007.7 hPa | - | - | - | - |
| 1778087850 | 27.22° C | 100% | 1008.2 hPa | - | - | - | - |
| 1778086949 | 26.67° C | 100% | 1008.4 hPa | - | - | - | - |
| 1778086048 | 27.22° C | 100% | 1008.5 hPa | - | - | - | - |
| 1778085147 | 27.22° C | 100% | 1008.6 hPa | - | - | - | - |
| 1778084246 | 27.22° C | 100% | 1008.5 hPa | - | - | - | - |
| 1778083345 | 27.78° C | 100% | 1008.2 hPa | - | - | - | - |
| 1778082445 | 28.33° C | 100% | 1008.2 hPa | - | - | - | - |
| 1778081544 | 28.33° C | 100% | 1008.5 hPa | - | - | - | - |
| 1778080643 | 27.78° C | 100% | 1008.5 hPa | - | - | - | - |
| 1778079742 | 27.78° C | 100% | 1008.6 hPa | - | - | - | - |
| 1778078841 | 27.78° C | 100% | 1008.3 hPa | - | - | - | - |
| 1778077940 | 28.89° C | 100% | 1008.3 hPa | - | - | - | - |
| 1778077040 | 28.89° C | 100% | 1007.9 hPa | - | - | - | - |
| 1778076139 | 28.89° C | 100% | 1007.6 hPa | - | - | - | - |
| 1778075238 | 28.89° C | 100% | 1007.6 hPa | - | - | - | - |
| 1778074337 | 28.89° C | 100% | 1007.4 hPa | - | - | - | - |
| 1778073436 | 29.44° C | 100% | 1007.3 hPa | - | - | - | - |
* Rain since midnight (hover to see other rain measurements)
** Current wind speed in m/s (hover to see current wind gust speed)